Hourly Data Report for February 12, 2018

TORONTO CITY
ONTARIO

43°40'00.000" N
79°24'00.000" W
112.50 m
6158355
71508
XTO

Download Data

Hourly Data (February 2018)
Hourly Data Report for February 12, 2018
TIME
LST
Temp Definition
°C
Dew Point Definition
°C
Rel Hum Definition
%
Precip. Amount Definition
mm

Wind Dir Definition
10's deg

Wind Spd Definition
km/h
Visibility Definition
km
Stn Press Definition
kPa
Hmdx Definition


Wind Chill Definition


Weather Definition


00:00 -1.9 -5.6 75 0.0 LegendMM LegendMM   100.58     LegendNANA
01:00 -1.8 -6.5 71 0.0 LegendMM LegendMM   100.74     LegendNANA
02:00 -2.6 -7.9 67 0.0 LegendMM LegendMM   100.86     LegendNANA
03:00 -3.3 -8.4 68 0.0 LegendMM LegendMM   101.00     LegendNANA
04:00 -4.4 -9.2 69 0.0 LegendMM LegendMM   101.10     LegendNANA
05:00 -5.1 -9.3 72 0.0 LegendMM LegendMM   101.22     LegendNANA
06:00 -5.6 -9.5 74 0.0 LegendMM LegendMM   101.41     LegendNANA
07:00 -6.3 -10.0 75 0.0 LegendMM LegendMM   101.50     LegendNANA
08:00 -6.6 -10.5 74 0.0 LegendMM LegendMM   101.67     LegendNANA
09:00 -5.9 -10.5 70 0.0 LegendMM LegendMM   101.78     LegendNANA
10:00 -4.1 -10.0 63 0.0 LegendMM LegendMM   101.90     LegendNANA
11:00 -3.3 -10.6 57 0.3 LegendMM LegendMM   101.98     LegendNANA
12:00 -3.2 -11.9 51 0.0 LegendMM LegendMM   102.04     LegendNANA
13:00 -2.7 -13.5 43 0.0 LegendMM LegendMM   102.07     LegendNANA
14:00 -3.4 -12.7 48 0.0 LegendMM LegendMM   102.14     LegendNANA
15:00 -3.0 -12.3 49 0.0 LegendMM LegendMM   102.20     LegendNANA
16:00 -3.1 -12.2 49 0.0 LegendMM LegendMM   102.27     LegendNANA
17:00 -3.2 -12.1 50 0.0 LegendMM LegendMM   102.39     LegendNANA
18:00 -4.1 -12.7 51 0.0 LegendMM LegendMM   102.47     LegendNANA
19:00 -4.6 -12.5 54 0.0 LegendMM LegendMM   102.56     LegendNANA
20:00 -5.5 -12.6 58 0.0 LegendMM LegendMM   102.63     LegendNANA
21:00 -6.0 -11.4 66 0.0 LegendMM LegendMM   102.70     LegendNANA
22:00 -6.9 -11.8 68 0.0 LegendMM LegendMM   102.75     LegendNANA
23:00 -7.2 -11.9 69 0.0 LegendMM LegendMM   102.80     LegendNANA

Notes on Data Quality.

Legend

  • E = Estimated
  • M = Missing
  • NA = Not Available*
  • [empty] = Indicates an unobserved value
Date modified: